Regional Weather Roundup
Issued by NWS

Home | Current Version | Previous Version | Text Only | Print | Product List | Glossary On
Versions: 1 2 3 4 5 6 7 8 9 10 11 12 13 14 15 16 17 18 19 20 21 22 23 24 25 26 27 28 29 30 31 32 33 34 35 36 37 38 39 40 41 42 43 44 45 46 47 48 49 50
074
ASUS43 KMPX 262001
RWRMN
WEATHER ROUNDUP FOR MINNESOTA
NATIONAL WEATHER SERVICE TWIN CITIES/CHANHASSEN MN
300 PM CDT WED JUL 26 2017


NOTE: "FAIR" INDICATES FEW OR NO CLOUDS BELOW 12,000 FEET WITH NO
SIGNIFICANT WEATHER AND/OR OBSTRUCTIONS TO VISIBILITY. N/A MEANS
CURRENT SKY AND/OR WEATHER CONDITIONS ARE NOT AVAILABLE.

MNZ060>063-068>070-262100-
   Twin Cities Metro

CITY           SKY/WX    TMP DP  RH WIND       PRES   REMARKS
TWIN CITIES    CLOUDY    81  66  60 NW10      29.99S
ST PAUL        CLOUDY    80  67  64 N12       29.99S
CRYSTAL        CLOUDY    83  57  41 N10       29.98F
BLAINE         MOSUNNY   84  61  45 NW9G15    29.99F
LAKEVILLE      CLOUDY    79  68  69 NW6       30.00S
EDEN PRAIRIE   CLOUDY    81  66  60 NW12      29.99S
SOUTH ST PAUL  CLOUDY    80  66  61 NW7       29.98F
LAKE ELMO      FAIR      77  68  73 NW5       30.01S
$$
MNZ001>005-007-008-013>017-022>024-027-028-262100-
   Northwest Minnesota

CITY           SKY/WX    TMP DP  RH WIND       PRES   REMARKS
BEMIDJI        MOSUNNY   78  59  51 N9G16     30.04S
HALLOCK        SUNNY     81  61  50 N12G18    30.05S
ROSEAU         MOSUNNY   75  64  69 N9        30.03S
WARROAD        MOSUNNY   79  63  57 NW8       30.03S
CROOKSTON      MOSUNNY   79  61  53 N10G18    30.06S
FOSSTON        MOSUNNY   79  61  53 NW12      30.06S
DETROIT LAKES  MOSUNNY   75  61  60 NW12      30.07S
MOORHEAD       SUNNY     79  61  53 N12G20    30.06S
PARK RAPIDS    MOSUNNY   80  59  48 NW13G18   30.03F
MAHNOMEN       MOCLDY    76  62  60 NW9       30.05S
$$
MNZ006-009>011-018-025>026-262100-
   North Central Minnesota

CITY           SKY/WX    TMP DP  RH WIND       PRES   REMARKS
BAUDETTE       SUNNY     79  59  50 NW14      30.02S
FLAG ISLAND    MOSUNNY   77  57  50 NW12      30.01R
INTL FALLS     MOSUNNY   77  56  48 NW12      29.99S
WASKISH        CLOUDY    79  61  53 NW6       30.02S
BIG FORK       MOSUNNY   81  59  47 W6        30.01R
LONGVILLE      SUNNY     79  61  53 W5        30.03S
GRAND RAPIDS   PTSUNNY   76  60  57 NW9       30.03S
CRANE LAKE     PTSUNNY   77  57  50 NW7       29.99S
ORR            MOSUNNY   79  55  44 NW8       29.97S
COOK             N/A     77  59  53 NW8       29.99S
WALKER         FAIR      78  61  55 NW10      30.03S
$$
MNZ012-019>021-037-262100-
   Northeast Minnesota

CITY           SKY/WX    TMP DP  RH WIND       PRES   REMARKS
DULUTH         MOSUNNY   80  60  50 NW12      29.99S
ELY            MOSUNNY   75  54  46 NW9       29.98S
HIBBING        MOSUNNY   77  57  50 W8        30.00S
EVELETH        MOSUNNY   78  46  31 W10       30.01S
DULUTH HARBOR  SUNNY     82  64  54 NW8       29.96F
TWO HARBORS    SUNNY     84  64  51 NW7       29.95S
GRAND MARAIS     N/A     68  60  75 SW17      29.91F
$$
MNZ029>031-032-039>041-046>048-054>057-064-262100-
   West Central Minnesota

CITY           SKY/WX    TMP DP  RH WIND       PRES   REMARKS
FERGUS FALLS   SUNNY     79  63  57 N14       30.05S
WHEATON        MOSUNNY   81  59  47 NW9       30.07S
MORRIS         SUNNY     82  57  42 N9        30.04F
ALEXANDRIA     PTSUNNY   80  62  54 NW12      30.06S
ELBOW LAKE     FAIR      77  61  58 W10       30.06S
WADENA         MOSUNNY   77  61  57 NW7       30.04S
GLENWOOD       SUNNY     81  61  50 NW9       30.05F
APPLETON       MOSUNNY   82  61  47 N8        30.05S
BENSON         SUNNY     82  61  47 N8        30.05F
ORTONVILLE     MOSUNNY   81  61  50 MISG      30.06S
MADISON        SUNNY     82  61  47 N5        30.06S
WILLMAR        FAIR      81  63  54 N6        30.05S
$$
MNZ033>034-036-042>043-049>051-058-059-262100-
   Central Minnesota

CITY           SKY/WX    TMP DP  RH WIND       PRES   REMARKS
ST CLOUD       MOSUNNY   82  62  50 N8        30.01F
SAUK CENTRE    FAIR      82  60  47 NW10      30.04S
PAYNESVILLE    MOSUNNY   82  60  47 N7        30.04F
AITKIN         SUNNY     79  61  53 NW7       30.00F
PINE RIVER     PTSUNNY   79  61  53 N9        30.05F
BRAINERD       PTSUNNY   79  58  48 NW9       30.02S
STAPLES        MOSUNNY   81  57  44 NW9       30.03S
LONG PRAIRIE   FAIR      79  59  50 W9        30.04F
LITTLE FALLS   MOSUNNY   79  55  44 NW5       30.03S
LITCHFIELD     MOSUNNY   82  63  51 N8G16     30.03F
BUFFALO        CLOUDY    82  60  47 N5        30.01F
MAPLE LAKE     MOSUNNY   82  64  54 NW6       30.02F
HUTCHINSON     SUNNY     80  64  58 NW10      30.03S
$$
MNZ037-044-045-052-053-262100-
   East Central Minnesota

CITY           SKY/WX    TMP DP  RH WIND       PRES   REMARKS
PRINCETON      MOSUNNY   82  63  51 NW7       30.01F
MORA           SUNNY     79  57  47 NW10      30.02S
CAMBRIDGE      MOSUNNY   82  64  54 W6        29.99F
RUSH CITY      SUNNY     80  59  47 NW5       30.01S
MOOSE LAKE     MOSUNNY   79  61  53 CALM      29.98F
HINCKLEY       FAIR      79  63  57 NW5       30.00S
CLOQUET        MOSUNNY   79  55  44 W9        29.99F
MCGREGOR       MOSUNNY   79  59  50 W3        30.01F
$$
MNZ071>073-080-081-089-090-097-098-262100-
   Southwest Minnesota

CITY           SKY/WX    TMP DP  RH WIND       PRES   REMARKS
MONTEVIDEO     SUNNY     84  64  51 NE7       30.05S
GRANITE FALLS  SUNNY     82  60  46 N8        30.06S
CANBY          SUNNY     83  55  37 NE3       30.07S
MARSHALL       SUNNY     79  61  53 N12       30.05
REDWOOD FALLS  SUNNY     82  58  43 N10       30.03R
OLIVIA         SUNNY     79  57  47 N10       30.04R
PIPESTONE      MOSUNNY   81  64  57 NE12      30.07R
WINDOM         SUNNY     81  66  61 N8        30.03S
WORTHINGTON    PTSUNNY   78  70  76 N9        30.05R
JACKSON        CLOUDY    79  68  69 CALM      30.03S
TRACY          MOSUNNY   80  66  63 N9        30.05S
SLAYTON        HVY RAIN  78  65  64 N9        30.06S
$$
MNZ065>067-074>077-082>085-091>093-262100-
   South Central Minnesota

CITY           SKY/WX    TMP DP  RH WIND       PRES   REMARKS
MANKATO        CLOUDY    77  70  79 NW7       30.02F
NEW ULM        SUNNY     81  64  57 N5        30.01F
ST JAMES       CLOUDY    79  70  73 NW6       30.02S
FAIRMONT       CLOUDY    80  70  71 VRB3      30.01F
GLENCOE        CLOUDY    80  68  65 NW6       30.01S
FARIBAULT      CLOUDY    79  70  73 SW6       30.02S
OWATONNA       CLOUDY    77  70  78 NW3       30.01F
WASECA         CLOUDY    77  70  78 NW3       30.02F
ALBERT LEA     CLOUDY    81  72  74 NW3       30.00F
$$
MNZ078>079-086>088-094>096-262100-
   Southeast Minnesota

CITY           SKY/WX    TMP DP  RH WIND       PRES   REMARKS
ROCHESTER      CLOUDY    76  71  85 SW3       30.02S
RED WING       CLOUDY    77  70  78 W6        29.98S
STANTON        CLOUDY    78  71  78 W3        29.99S
DODGE CENTER   CLOUDY    77  70  78 SW3       30.02F
WINONA         CLOUDY    77  70  78 NW3       30.00S
AUSTIN         CLOUDY    79  70  73 S6        30.00F
PRESTON        CLOUDY    76  68  77 CALM      30.02F
$$
ABBREVIATIONS USED IN REMARKS
   TC - TEMPERATURES IN CELSIUS
  WCI - WIND CHILL INDEX
   HX - HEAT INDEX
  VSB - VISIBILITY
$$




USA.gov is the U.S. government's official web portal to all federal, state and local government web resources and services.